Regional Weather Roundup
Issued by NWS

Home | Current Version | Previous Version | Text Only | Print | Product List | Glossary Off
Versions: 1 2 3 4 5 6 7 8 9 10 11 12 13 14 15 16 17 18 19 20 21 22 23 24 25 26 27 28 29 30 31 32 33 34 35 36 37 38 39 40 41 42 43 44 45 46 47 48 49 50

000
ASUS45 KBOI 210810
RWRID
WEATHER ROUNDUP FOR IDAHO
NATIONAL WEATHER SERVICE BOISE ID
200 AM MDT THU AUG 21 2014

NOTE: "FAIR" INDICATES FEW OR NO CLOUDS BELOW 12000 FEET
WITH NO SIGNIFICANT WEATHER AND/OR OBSTRUCTIONS TO VISIBILITY

IDZ012-014-210900-
SOUTHWEST IDAHO


CITY           SKY/WX    TMP DP  RH WIND       PRES   REMARKS
BOISE          PTCLDY    67  51  56 SW6       29.88R
CALDWELL       PTCLDY    64  43  45 W8        29.89R
MOUNTAIN HOME  CLOUDY    71  52  51 SE10      29.88S
$$

IDZ016-017-210900-
SOUTHCENTRAL IDAHO


CITY           SKY/WX    TMP DP  RH WIND       PRES   REMARKS
BURLEY         LGT RAIN  59  56  89 CALM      30.02R
JEROME         LGT RAIN  63  55  75 SW10      30.02R
TWIN FALLS     LGT RAIN  62  55  77 W12       30.02R
$$

IDZ019>023-210900-
SOUTHEAST IDAHO


CITY           SKY/WX    TMP DP  RH WIND       PRES   REMARKS
IDAHO FALLS    CLOUDY    58  54  86 NE6       30.06R
POCATELLO      LGT RAIN  59  56  89 E5        30.03F
REXBURG        LGT RAIN  55  52  89 SE5       30.06F
$$

IDZ006-010-011-018-031-032-210900-
CENTRAL IDAHO MOUNTAINS


CITY           SKY/WX    TMP DP  RH WIND       PRES   REMARKS
MCCALL         MOCLDY    54  46  74 NW3       29.99R
HAILEY         CLOUDY    61  50  67 S5        30.06R
STANLEY          N/A     48  44  86 CALM      30.07S
SALMON         CLOUDY    55  54  94 NW7       30.00F
CHALLIS        CLOUDY    56  49  77 NW8       30.02S
$$

IDZ002-004-006-007-026-210900-
NORTHERN IDAHO


CITY           SKY/WX    TMP DP  RH WIND       PRES   REMARKS
LEWISTON       MOCLDY    64  42  44 S5        29.88R
LOWELL           N/A     62  57  83 CALM      29.90R
COEUR D`ALENE  CLEAR     55  52  88 N10       29.92R
MULLAN PASS    MOCLDY    52  45  77 CALM      30.04R
$$


USA.gov is the U.S. government's official web portal to all federal, state and local government web resources and services.